Miscellaneous Local Product
Issued by NWS Hastings, NE

Home | Current Version | Previous Version | Graphics & Text | Print | Product List | Glossary Off
Versions: 1 2 3 4 5 6 7 8 9 10 11 12 13 14 15 16 17 18 19 20 21 22 23 24 25 26 27 28 29 30 31 32 33 34 35 36 37 38 39 40 41 42 43 44 45 46 47 48 49 50

000
AXUS43 KGID 221702
MISGRI

GID CWA HOURLY WEATHER ROUNDUP
NATIONAL WEATHER SERVICE HASTINGS NE
1100 AM CST SUN JAN 22 2017

NOTE: "FAIR" INDICATES FEW OR NO CLOUDS BELOW 12,000 FEET WITH NO
SIGNIFICANT WEATHER AND/OR OBSTRUCTIONS TO VISIBILITY.

...SOUTH CENTRAL NEBRASKA...

CITY           SKY/WX    TMP DP  RH WIND       PRES   REMARKS
GRAND ISLAND   SUNNY     35  29  78 N14       29.84R WCI  26
HASTINGS       SUNNY     37  29  72 N17       29.84R WCI  27
KEARNEY        SUNNY    N/A N/A N/A MISG        N/A
ORD            SUNNY     35  28  75 NW12      29.83R WCI  27
YORK           MOSUNNY   32  32 100 N9        29.84R WCI  24
AURORA         SUNNY     34  31  87 N14       29.84R WCI  25
LEXINGTON      SUNNY     37  31  80 NW12      29.87R WCI  29
HOLDREGE       SUNNY     38  29  70 NW9G16    29.85R WCI  31
HEBRON         PTSUNNY   36  31  81 N13       29.83R WCI  28

...NEBRASKA PANHANDLE...

CITY           SKY/WX    TMP DP  RH WIND       PRES   REMARKS
CHADRON        CLOUDY    32  25  75 W10       29.89R WCI  24
ALLIANCE       CLOUDY    32  26  78 W10       29.88R WCI  24
SCOTTSBLUFF    SUNNY     36  24  62 NW13      29.92R WCI  27
SIDNEY         SUNNY     39  23  52 NW17G29   29.91R WCI  30

...WESTERN AND NORTH CENTRAL NEBRASKA...

CITY           SKY/WX    TMP DP  RH WIND       PRES   REMARKS
VALENTINE      SUNNY     35  29  78 NW9       29.85R WCI  28
AINSWORTH      MOSUNNY   35  30  82 NW13      29.85R WCI  26
ONEILL         SUNNY     36  29  77 NW9       29.84R WCI  29
BROKEN BOW     SUNNY     39  30  70 N14       29.84R WCI  31
IMPERIAL       SUNNY     38  27  64 NW14      29.91R WCI  30
NORTH PLATTE   SUNNY     38  31  76 W9        29.89R WCI  31
MCCOOK         SUNNY     41  32  70 NW13      29.89R

...EASTERN NEBRASKA...

CITY           SKY/WX    TMP DP  RH WIND       PRES   REMARKS
NORFOLK        CLOUDY    29  27  92 NW13      29.82R FOG     WCI  19
SO SIOUX CITY  CLOUDY    36  32  85 NW15      29.79R WCI  27
TEKAMAH        CLOUDY    35  31  85 NW8       29.80R WCI  29
COLUMBUS       CLOUDY    32  28  86 NW10      29.84R WCI  24
ALBION         MOSUNNY   33  25  70 NW13      29.82S WCI  24
OMAHA EPPLEY   CLOUDY    35  29  78 N9        29.79R WCI  28
OFFUTT AFB     CLOUDY    36  36  99 NW14      29.78R WCI  27
MILLARD        CLOUDY    37  32  82 NW9       29.80R WCI  31
LINCOLN        CLOUDY    36  31  82 NW10      29.83R WCI  28
NEBRASKA CITY  CLOUDY    33  31  93 NW9       29.78S FOG     WCI  25
BEATRICE       CLOUDY    33  32  95 N17       29.81R WCI  22
FALLS CITY     CLOUDY    33  30  88 N15       29.78R FOG     WCI  23

...NORTHERN KANSAS...

CITY           SKY/WX    TMP DP  RH WIND       PRES   REMARKS
GOODLAND       SUNNY     40  27  59 NW18      29.91R WCI  31
HILL CITY      SUNNY     43  30  60 N17       29.89R
NORTON         SUNNY     39  27  60 NW15      29.87R WCI  31
PHILLIPSBURG   SUNNY     43  28  56 NW14G20   29.87R
SMITH CENTER   SUNNY     41  30  65 NW16      29.86R
HAYS           SUNNY     44  31  60 N17       29.86R
RUSSELL        SUNNY     44  31  60 N18       29.84R
CONCORDIA      SUNNY     39  32  76 N15       29.81R WCI  31
SALINA         MOSUNNY   45  32  60 NW16G23   29.80R
TOPEKA         MOSUNNY   44  36  73 N13       29.75R



USA.gov is the U.S. government's official web portal to all federal, state and local government web resources and services.